www.pogodaiklimat.ru

Погода и климат >> Архив погоды >> Россия >> Ленинградская область >> Винницы


ПОГОДА в Винницах

  • Прогноз погоды в Винницах
  • Монитор погоды в Винницах

АРХИВ ПОГОДЫ в Винницах

Время (UTC), дата Ветер
(напр.,м/с)
 
Видим.   Явления Облачность Т
(С)
Тd
(С)
f
(%)
Тe
(С)
Тes
(С)
Комфортность P
(гПа)
Po
(гПа)
Тmin
(С)
Tmax
(С)
R
(мм)
R24
(мм)
S
(см)
12 15.08 З 3 50 км {ливн. осадки, дождь} 8/4 600 м
[Cb cap Ac und]
+16.5 +11.5 72 +16 +18 1008.0 994.9
15 15.08 ЮЗ 3 50 км 5/3 1000 м
[Sc Ac trans]
+17.6 +11.0 65 +18 +19 1008.6 995.6 2
18 15.08 штиль 0
{14}
50 км {гроза, ливн. осадки} 3/3 600 м
[Cb cap]
+11.5 +10.9 96 +11 +11 1010.5 997.2 +18.2 9
21 15.08 штиль 0 23 км туман поземный 1/0
[Ac trans]
+10.3 +9.9 97 +9 +9 1011.2 997.8
00 16.08 ЮЗ 1 50 км 9/0
[Ac und]
+11.0 +10.8 99 +11 +11 1012.7 999.3
03 16.08 З 2 50 км 9/0
[Ac und]
+10.0 +9.6 97 +8 +8 1013.5 1000.1 +9.7 6
06 16.08 ЮЗ 3 50 км {ливн. осадки} 9/8 500 м
[Cb cap Ac und]
+12.8 +11.5 92 +11 +12 1014.4 1001.1 +9.7 0.1
09 16.08 ЮЗ 4 50 км 5/5 600 м
[Cb cap]
+17.0 +11.4 70 +17 +20 1014.6 1001.5
12 16.08 З 2 50 км 5/5 600 м
[Cb cap]
+19.7 +8.3 48 +21 +25 комфорт 1015.0 1002.0
15 16.08 З 2 50 км 3/3 1000 м
[Sc]
+18.4 +7.9 50 +19 +20 1015.7 1002.6 0.1
18 16.08 З 1 50 км ясно +10.9 +9.2 89 +11 +11 1017.2 1003.7 +20.2
21 16.08 штиль 0 50 км ясно +6.6 +6.4 99 +5 +5 1018.3 1004.6
00 17.08 штиль 0 22 км туман поземный ясно +5.3 +5.1 99 +4 +4 1019.1 1005.5
03 17.08 штиль 0 50 км ясно +3.3 +3.1 99 +2 +2 1020.1 1006.2 +3.1
06 17.08 штиль 0 50 км ясно +14.5 +10.1 75 +14 +21 1020.1 1006.8 +3.1
09 17.08 штиль 0 50 км ясно +20.6 +8.1 45 +22 +35 комфорт 1019.8 1006.7
12 17.08 штиль 0 50 км 5/3 600 м
[Cu Sc Ac trans]
+22.0 +7.7 40 +23 +29 комфорт 1019.1 1006.1
15 17.08 штиль 0 50 км 3/0
[Ac trans]
+21.5 +8.3 43 +23 +24 комфорт 1018.4 1005.4
18 17.08 СВ 1 50 км ясно +13.3 +10.8 85 +13 +13 1019.2 1005.8 +23.2
21 17.08 штиль 0 50 км ясно +8.2 +8.0 99 +7 +7 1019.2 1005.6
00 18.08 штиль 0 21 км туман поземный ясно +5.7 +5.6 99 +5 +5 1019.6 1005.8
03 18.08 штиль 0 24 км туман поземный 3/0
[Ac trans Ci fib]
+4.7 +4.5 99 +3 +4 1019.1 1005.3 +4.0
06 18.08 В 1 50 км 4/0
[Ac trans Ci fib]
+16.0 +11.0 72 +17 +22 1017.6 1004.4 +4.0
09 18.08 ЮВ 2 50 км 8/0
[Ac und Ci fib]
+22.2 +8.9 43 +24 +30 комфорт 1015.9 1003.0
12 18.08 В 2 50 км 8/0
[Ac und Ci sp]
+22.7 +9.4 43 +24 +29 комфорт 1014.8 1001.9
15 18.08 СВ 1 50 км 10/5 1000 м
[Sc Ac und]
+19.7 +11.5 59 +22 +22 комфорт 1014.5 1001.5
18 18.08 В 3 50 км 10/5 1000 м
[Sc Ac und]
+16.4 +13.0 80 +16 +16 1014.8 1001.6 +23.2
21 18.08 СВ 1 50 км 9/0
[Ac und]
+14.9 +13.4 91 +15 +15 1013.8 1000.6
00 19.08 штиль 0 50 км 9/0
[Ac und]
+14.6 +13.6 94 +14 +14 1013.6 1000.4
03 19.08 штиль 0 50 км 9/0
[Ac und]
+14.6 +13.6 94 +14 +14 1013.2 1000.0 +14.5
06 19.08 ЮЗ 2 50 км 9/9 500 м
[Cb cap]
+16.4 +14.2 87 +16 +17 1013.4 1000.3 +14.5
09 19.08 ЮЗ 3 50 км 9/9 570 м
[Cb cap]
+17.4 +14.7 84 +17 +18 1013.4 1000.3
12 19.08 ЮЗ 3 50 км 9/9 570 м
[Cb cap]
+18.4 +14.9 80 +19 +20 1014.1 1001.1
15 19.08 Ю 3 50 км 8/4 600 м
[Sc Ac und]
+20.1 +14.8 72 +23 +23 комфорт 1014.0 1001.0
18 19.08 Ю 1 50 км 10/10 600 м
[Cb cap]
+17.0 +14.3 84 +18 +18 1014.8 1001.7 +20.2
21 19.08 ЮВ 1 50 км 10/10 660 м
[Cb cap]
+17.0 +14.5 85 +18 +18 1014.6 1001.5
00 20.08 Ю 1 50 км 8/3 600 м
[Cb cap Ac und Ci fib]
+15.4 +14.1 92 +16 +16 1014.8 1001.6
03 20.08 З 2 50 км 9/5 600 м
[Cb cap Ac und]
+15.4 +14.8 96 +15 +15 1015.8 1002.6 +14.3
06 20.08 ЮЗ 2 50 км 8/3 600 м
[Cb cap Ac und Ci fib]
+17.9 +14.4 80 +18 +20 1017.6 1004.5 +14.3
09 20.08 З 2 50 км 9/3 600 м
[Cb cap Ac und Ci fib]
+19.4 +12.8 66 +21 +25 комфорт 1018.5 1005.4
12 20.08 ЮЗ 2 50 км 5/1 600 м
[Cu hum Ac trans Ci fib]
+21.0 +11.1 53 +24 +29 комфорт 1019.5 1006.5
15 20.08 З 1 50 км 8/1 600 м
[Cu hum Ac trans Ci fib]
+20.2 +10.9 55 +23 +24 комфорт 1020.2 1007.2
18 20.08 З 1 50 км 5/0
[Ac trans]
+13.2 +11.0 87 +13 +13 1021.6 1008.2 +21.3
21 20.08 З 1 50 км 3/0
[Ac trans]
+10.2 +9.6 96 +10 +10 1022.5 1008.9
00 21.08 штиль 0 23 км туман поземный 3/0
[Ac trans]
+7.9 +7.6 98 +7 +7 1023.3 1009.6
03 21.08 штиль 0 50 км 8/0
[Ac trans Ci fib]
+7.5 +7.3 99 +6 +7 1024.1 1010.4 +6.9
06 21.08 ЮЗ 1 50 км 3/0
[Ac trans]
+16.4 +12.5 78 +17 +21 1024.5 1011.2 +6.9
09 21.08 ЮЗ 3 50 км 8/4 600 м
[Cb cap Ac und]
+21.0 +12.5 58 +24 +26 комфорт 1024.3 1011.2
12 21.08 З 2 50 км 9/5 600 м
[Cb cap Ac und]
+20.5 +11.8 57 +23 +25 комфорт 1024.0 1010.9
15 21.08 ЮЗ 1 50 км 9/5 600 м
[Cb cap Ac und]
+18.9 +13.4 70 +21 +21 комфорт 1022.8 1009.7
18 21.08 штиль 0 50 км 10/0
[Ac As]
+15.2 +14.1 93 +15 +15 1022.3 1009.0 +21.5
21 21.08 штиль 0 14 км дождь 10/0
[Ac As]
+14.0 +13.5 97 +14 +14 1021.4 1008.0
00 22.08 штиль 0 12 км дождь 10/0
[As op]
+13.5 +13.0 97 +13 +13 1019.8 1006.4
03 22.08 С 1 10 км дождь 10/0
[Ac As]
+13.0 +12.5 97 +13 +13 1018.4 1005.0 +13.0 8
06 22.08 СЗ 1 50 км {дождь} 10/0
[Ac As]
+13.6 +12.7 94 +14 +15 1017.9 1004.6 +13.0 8
09 22.08 З 2 28 км слаб. ливневой дождь 9/8 600 м
[Cb cap As op]
+15.2 +13.2 88 +15 +16 1019.1 1005.8

 

Местоположение метеостанции Винницы (Ленинградская область, Россия): широта 60.63 долгота 34.78 высота над уровнем моря 111 м.

В архиве по умолчанию представлена погода в Винницах за последнюю неделю. Архивные данные за месяц целиком и за предыдущие месяцы, начиная с января 2011 года, Вы можете получить, выбрав интересующий диапазон дат из раскрывающегося списка и нажав кнопку "Ввод!".


*Определитесь, кто Вы:
робот инопланетянин человек

Внимание! Время в таблицах - всемирное. Для получения местного времени необходимо прибавить поправку, которая равна 3 ч.

Смотрите также архив погоды в соседних городах и на ближайших метеорологических станциях:

Погода в Вознесенье (Ленинградская область, Россия) (58 км)
Погода в Лодейном Поле (Ленинградская область, Россия) (68 км)
Погода в Шугозере (Ленинградская область, Россия) (85 км)
Погода в Вытегре (Вологодская область, Россия) (100 км)
Погода в Олонце (Карелия, Россия) (105 км)
Погода в Ефимовской (Ленинградская область, Россия) (126 км)
Погода в Тихвине (Ленинградская область, Россия) (129 км)
Погода в Пряже (Ленинградская область, Россия) (132 км)
Погода в Маячном (Карелия, Россия) (135 км)
Погода в Петрозаводске (Карелия, Россия) (135 км)

Пояснения к столбцам:

Ветер - указаны скорость ветра в м/с - средняя за 10 мин, порывы в срок и между сроками (в фигурных скобках) и направление, откуда дует ветер: С - северный, СВ - северо-восточный, В - восточный, ЮВ - юго-восточный, Ю - южный, ЮЗ - юго-западный, З - западный, СЗ - северо-западный.
Видимость - горизонтальная дальность видимости в метрах или километрах. При видимости от 1 до 10 км при отсутствии осадков обычно наблюдается дымка, при ухудшении видимости до 1 км и менее - туман. В сухую погоду видимость может ухудшаться дымом, пылью или мглою.
Явления - указаны атмосферные явления, наблюдавшиеся в срок или в последний час перед сроком; фигурными скобками обозначены явления, наблюдавшиеся между сроками (за 1-3 часа до срока); квадратными скобками обозначены град или гололедные отложения с указанием их диаметра в мм.
Облачность - указаны через наклонную черту общая и нижняя облачность в баллах и высота нижней границы облаков в метрах; квадратными скобками обозначены формы облаков: Ci - перистые, Cs - перисто-слоистые, Cc - перисто-кучевые, Ac - высококучевые, As - высокослоистые, Sc - слоисто-кучевые, Ns - слоисто-дождевые, Cu - кучевые, Cb - кучево-дождевые. Подробнее классификацию облаков см. в Атласе облаков (PDF).
T - Температура воздуха - температура, измеренная на высоте 2 м над землей.
Td - Температура точки росы - температура, при понижении до которой содержащийся в воздухе водяной пар достигнет насыщения.
f - Относительная влажность воздуха - влажноcть воздуха, измеренная на высоте 2 м над землей.
Te - Эффективная температура - температура, которую ощущает одетый по сезону человек в тени. Характеристика душности погоды. При расчете учитывается влияние влажности воздуха и скорости ветра на теплоощущения человека.
Tes - Эффективная температура на солнце - температура, которую ощущает человек, с поправкой на солнечный нагрев. Характеристика знойности погоды. Зависит от высоты солнца над горизонтом, облачности и скорости ветра. Ночью, в пасмурную погоду, а также при ветре 12 м/с и более поправка равна нулю.
P - Атмосферное давление - приведенное к уровню моря атмосферное давление.
Po - Атмосферное давление - измеренное на уровне метеостанции атмосферное давление.
Tmin - Минимальная температура - минимум температуры воздуха на высоте 2 м над землей.
Tmax - Максимальная температура - максимум температуры воздуха на высоте 2 м над землей.
R - Количество осадков - Количество выпавших осадков за период времени, мм. При наведении курсора мыши на число - период времени, за который выпало указанное количество осадков.
R24 - Количество осадков - Количество выпавших осадков за 24 часа, мм.
S - Снежный покров - Высота снежного покрова, см. При наведении курсора мыши на число - состояние снежного покрова и степень покрытия местности в баллах.